Weather History for El Paso, TX

Change the Weather History Date:

Saturday, March 16, 2013

  Actual Average Record
Temperature  
Mean Temperature 73 °F 56 °F  
Max Temperature 85 °F 70 °F 85 °F (2013)
Min Temperature 60 °F 43 °F 22 °F (1880)
Degree Days  
Heating Degree Days 0 9  
Month to date heating degree days 118 165  
Since 1 July heating degree days 2083 2268  
Cooling Degree Days 8 0  
Month to date cooling degree days 9 0  
Year to date cooling degree days 9 0  
Growing Degree Days 22 (Base 50)    
Moisture  
Dew Point 10 °F    
Average Humidity 10    
Maximum Humidity 15    
Minimum Humidity 4    
Precipitation  
Precipitation 0.00 in 0.01 in 0.34 in (1941)
Month to date precipitation T 0.15  
Year to date precipitation 0.71 1.01  
Snow  
Snow 0.00 in - - ()
Month to date snowfall 0.0  
Since 1 July snowfall 3.1  
Snow Depth 0.00 in    
Sea Level Pressure  
Sea Level Pressure 29.70 in    
Wind  
Wind Speed 11 mph (WSW)    
Max Wind Speed 29 mph    
Max Gust Speed 38 mph    
Visibility 10 miles    
Events      
T = Trace of Precipitation, MM = Missing Value Source: NWS Daily Summary

Daily Weather History Graph

Daily Weather History Graph

Search for Another Location

Airport:

Trip Planner

Search our weather history database for the weather conditions in past years. The results will help you decide how hot, cold, wet, or windy it might be!

Date:

Astronomy

Mar. 16, 2013 Rise Set
Actual Time 7:13 AM MDT 7:14 PM MDT
Civil Twilight 6:49 AM MDT 7:38 PM MDT
Nautical Twilight 6:21 AM MDT 8:07 PM MDT
Astronomical Twilight 5:52 AM MDT 8:35 PM MDT
Moon 10:03 AM MDT (3/16) No Moon Set
Length of Visible Light 12h 49m
Length of Day
12h 00m
Waxing Crescent, 23% of the Moon is Illuminated
Mar 16
Waxing Crescent
Mar 19
First Quarter
Mar 27
Full
Apr 2
Last Quarter
Apr 10
New

Hourly Weather History & Observations

Time (MDT) Temp. Dew Point Humidity Pressure Visibility Wind Dir Wind Speed Gust Speed Precip Events Conditions
12:51 AM 64.0 °F 6.1 °F 10% 29.76 in 10.0 mi SSE 5.8 mph - N/A   Partly Cloudy
1:51 AM 62.6 °F 6.8 °F 11% 29.94 in 10.0 mi South 6.9 mph - N/A   Scattered Clouds
2:51 AM 62.1 °F 6.1 °F 11% 29.74 in 10.0 mi South 5.8 mph - N/A   Scattered Clouds
3:51 AM 71.1 °F 10.0 °F 9% 29.70 in 10.0 mi NW 9.2 mph - N/A   Scattered Clouds
4:51 AM 63.0 °F 10.9 °F 13% 29.73 in 10.0 mi South 5.8 mph - N/A   Scattered Clouds
5:51 AM 68.0 °F 10.9 °F 11% 29.73 in 10.0 mi West 11.5 mph - N/A   Scattered Clouds
6:51 AM 61.0 °F 12.0 °F 15% 29.77 in 10.0 mi South 9.2 mph - N/A   Scattered Clouds
7:51 AM 61.0 °F 12.9 °F 15% 29.78 in 10.0 mi South 6.9 mph - N/A   Scattered Clouds
8:51 AM 68.0 °F 12.0 °F 11% 29.78 in 10.0 mi SW 4.6 mph - N/A   Partly Cloudy
9:51 AM 66.9 °F 14.0 °F 13% 29.78 in 10.0 mi South 11.5 mph - N/A   Scattered Clouds
10:51 AM 73.9 °F 14.0 °F 10% 29.77 in 10.0 mi South 9.2 mph - N/A   Scattered Clouds
11:51 AM 73.9 °F 16.0 °F 11% 29.78 in 10.0 mi South 6.9 mph - N/A   Scattered Clouds
12:44 PM 80.6 °F 14.0 °F 8% 29.91 in 10.0 mi WNW 13.8 mph 25.3 mph N/A   Scattered Clouds
12:51 PM 80.1 °F 14.0 °F 8% 29.72 in 10.0 mi West 11.5 mph 23.0 mph N/A   Scattered Clouds
1:51 PM 81.0 °F 12.9 °F 8% 29.68 in 10.0 mi WSW 9.2 mph 23.0 mph N/A   Scattered Clouds
2:51 PM 82.9 °F 12.0 °F 7% 29.64 in 10.0 mi WSW 15.0 mph 26.5 mph N/A   Scattered Clouds
3:51 PM 84.0 °F 9.0 °F 6% 29.59 in 10.0 mi WNW 13.8 mph 20.7 mph N/A   Scattered Clouds
4:51 PM 84.0 °F -0.0 °F 4% 29.58 in 10.0 mi WSW 17.3 mph 27.6 mph N/A   Scattered Clouds
5:51 PM 82.9 °F 1.0 °F 4% 29.57 in 10.0 mi West 16.1 mph 25.3 mph N/A   Mostly Cloudy
6:51 PM 80.1 °F 5.0 °F 6% 29.60 in 10.0 mi WNW 17.3 mph 26.5 mph N/A   Mostly Cloudy
7:51 PM 77.0 °F 7.0 °F 7% 29.62 in 10.0 mi WNW 13.8 mph - N/A   Mostly Cloudy
8:51 PM 75.9 °F 8.1 °F 7% 29.62 in 10.0 mi WNW 10.4 mph - N/A   Mostly Cloudy
9:51 PM 75.0 °F 10.0 °F 8% 29.65 in 10.0 mi WNW 9.2 mph - N/A   Mostly Cloudy
10:51 PM 72.0 °F 10.9 °F 10% 29.65 in 10.0 mi WSW 6.9 mph - N/A   Scattered Clouds
11:51 PM 72.0 °F 12.0 °F 10% 29.65 in 10.0 mi West 11.5 mph - N/A   Scattered Clouds